Location: Arcueil
(48.7999°N, 2.3326°E)
Time: 18:02:57
(UTC+00:00)

CZ-4 R/B - Pass Details

Date: 28 September 2023
Orbit: 522 x 578 km, 97.7° (Epoch: 28 November)

Event Time Altitude Azimuth Distance (km) Brightness Sun altitude
Exits shadow 19:27:20 - 184° (S) 2,227 4.3 -18.8°
Reaches altitude 10° 19:28:25 10° 188° (S) 1,785 3.8 -19.0°
Maximum altitude 19:32:06 43° 261° (W) 753 2.4 -19.5°
Drops below altitude 10° 19:35:46 10° 334° (NNW) 1,778 4.5 -20.1°
Sets 19:37:57 0° 341° (NNW) 2,668 5.4 -20.4°
